Weather History for Pratt, KS

Change the Weather History Date:

Friday, February 8, 2013

  Actual Average (KP28) Record (KP28)
Temperature  
Mean Temperature 37 °F 36 °F  
Max Temperature 51 °F 49 °F 77 °F (1954)
Min Temperature 23 °F 24 °F -15 °F (1933)
Degree Days  
Heating Degree Days 28 29  
Month to date heating degree days 235  
Since 1 July heating degree days 3012  
Cooling Degree Days 0 0  
Month to date cooling degree days 0  
Year to date cooling degree days 0  
Moisture  
Dew Point 28 °F    
Average Humidity 74    
Maximum Humidity 93    
Minimum Humidity 33    
Precipitation  
Precipitation 0.00 in 0.03 in 0.66 in (1966)
Month to date precipitation 0.22  
Year to date precipitation 0.93  
Snow  
Snow 0.00 in 0.10 in - ()
Month to date snowfall 0.8  
Since 1 July snowfall 7.0  
Snow Depth -    
Sea Level Pressure  
Sea Level Pressure 30.19 in    
Wind  
Wind Speed 5 mph (SSE)    
Max Wind Speed 17 mph    
Max Gust Speed 23 mph    
Visibility 10 miles    
Events      
T = Trace of Precipitation, MM = Missing Value Source: NWS Daily Summary

Daily Weather History Graph

Daily Weather History Graph

Search for Another Location

Airport:

Trip Planner

Search our weather history database for the weather conditions in past years. The results will help you decide how hot, cold, wet, or windy it might be!

Date:

Astronomy

Feb. 08, 2013 Rise Set
Actual Time 7:31 AM CST 6:06 PM CST
Civil Twilight 7:04 AM CST 6:34 PM CST
Nautical Twilight 6:33 AM CST 7:05 PM CST
Astronomical Twilight 6:03 AM CST 7:35 PM CST
Moon 6:00 AM CST (2/8) 4:42 PM CST (2/8)
Length of Visible Light 11h 29m
Length of Day
10h 34m
Waning Crescent, 3% of the Moon is Illuminated
Feb 8
Waning Crescent
Feb 10
New
Feb 17
First Quarter
Feb 25
Full
Mar 4
Last Quarter

Hourly Weather History & Observations

Time (CST) Temp. Windchill Dew Point Humidity Pressure Visibility Wind Dir Wind Speed Gust Speed Precip Events Conditions
12:15 AM 28.4 °F - 26.6 °F 93% 30.22 in 10.0 mi Calm Calm - N/A   Clear
12:35 AM 30.2 °F - 26.6 °F 86% 30.22 in 10.0 mi Calm Calm - N/A   Clear
12:55 AM 32.0 °F - 30.2 °F 93% 30.22 in 10.0 mi Calm Calm - N/A   Clear
1:15 AM 30.2 °F - 28.4 °F 93% 30.22 in 10.0 mi Calm Calm - N/A   Clear
1:35 AM 28.4 °F - 24.8 °F 86% 30.22 in 10.0 mi Calm Calm - N/A   Clear
1:55 AM 28.4 °F - 24.8 °F 86% 30.23 in 10.0 mi Calm Calm - N/A   Clear
2:15 AM 28.4 °F - 26.6 °F 93% 30.23 in 10.0 mi Calm Calm - N/A   Clear
2:35 AM 26.6 °F - 24.8 °F 93% 30.24 in 10.0 mi Calm Calm - N/A   Clear
2:55 AM 28.4 °F - 26.6 °F 93% 30.24 in 10.0 mi Calm Calm - N/A   Clear
3:15 AM 28.4 °F - 26.6 °F 93% 30.24 in 10.0 mi Calm Calm - N/A   Clear
3:35 AM 28.4 °F - 26.6 °F 93% 30.24 in 10.0 mi Calm Calm - N/A   Clear
3:55 AM 28.4 °F - 26.6 °F 93% 30.23 in 10.0 mi Calm Calm - N/A   Clear
4:15 AM 28.4 °F - 24.8 °F 86% 30.23 in 10.0 mi Calm Calm - N/A   Clear
4:35 AM 28.4 °F - 26.6 °F 93% 30.24 in 10.0 mi Calm Calm - N/A   Clear
4:55 AM 30.2 °F - 26.6 °F 86% 30.23 in 10.0 mi Calm Calm - N/A   Clear
5:15 AM 28.4 °F - 26.6 °F 93% 30.24 in 10.0 mi Calm Calm - N/A   Clear
5:55 AM 24.8 °F - 23.0 °F 93% 30.25 in 10.0 mi Calm Calm - N/A   Clear
6:15 AM 24.8 °F - 23.0 °F 93% 30.25 in 10.0 mi Calm Calm - N/A   Clear
6:35 AM 28.4 °F - 26.6 °F 93% 30.25 in 10.0 mi Calm Calm - N/A   Clear
6:55 AM 28.4 °F - 24.8 °F 86% 30.24 in 10.0 mi Calm Calm - N/A   Clear
7:15 AM 26.6 °F - 24.8 °F 93% 30.25 in 10.0 mi Calm Calm - N/A   Clear
7:35 AM 23.0 °F - 21.2 °F 93% 30.25 in 10.0 mi Calm Calm - N/A   Clear
7:55 AM 24.8 °F - 23.0 °F 93% 30.25 in 10.0 mi Calm Calm - N/A   Clear
8:15 AM 30.2 °F - 28.4 °F 93% 30.24 in 10.0 mi Calm Calm - N/A   Clear
8:35 AM 32.0 °F 28.7 °F 28.4 °F 87% 30.25 in 7.0 mi ESE 3.5 mph - N/A   Clear
8:55 AM 32.0 °F - 30.2 °F 93% 30.25 in 7.0 mi Calm Calm - N/A   Clear
9:15 AM 32.0 °F 27.5 °F 30.2 °F 93% 30.26 in 7.0 mi South 4.6 mph - N/A   Clear
9:35 AM 33.8 °F 27.7 °F 30.2 °F 87% 30.27 in 7.0 mi SSE 6.9 mph - N/A   Clear
9:55 AM 35.6 °F 31.7 °F 32.0 °F 87% 30.28 in 7.0 mi SSE 4.6 mph - N/A   Clear
10:15 AM 37.4 °F 33.8 °F 32.0 °F 81% 30.27 in 10.0 mi SE 4.6 mph - N/A   Clear
10:35 AM 39.2 °F 34.2 °F 32.0 °F 75% 30.27 in 10.0 mi SSE 6.9 mph - N/A   Clear
10:55 AM 42.8 °F 38.0 °F 32.0 °F 66% 30.27 in 10.0 mi SSE 8.1 mph - N/A   Clear
11:15 AM 44.6 °F 39.7 °F 30.2 °F 57% 30.28 in 10.0 mi South 9.2 mph - N/A   Clear
11:35 AM 44.6 °F 39.7 °F 30.2 °F 57% 30.28 in 10.0 mi SSE 9.2 mph - N/A   Clear
11:55 AM 46.4 °F 41.5 °F 30.2 °F 53% 30.27 in 10.0 mi SSE 10.4 mph - N/A   Clear
12:15 PM 46.4 °F 41.1 °F 26.6 °F 46% 30.24 in 10.0 mi SSE 11.5 mph - N/A   Clear
12:35 PM 46.4 °F 40.7 °F 28.4 °F 50% 30.22 in 10.0 mi SSE 12.7 mph - N/A   Clear
12:55 PM 48.2 °F - 28.4 °F 46% 30.22 in 10.0 mi SSE 12.7 mph 16.1 mph N/A   Clear
1:15 PM 50.0 °F - 26.6 °F 40% 30.22 in 10.0 mi South 16.1 mph - N/A   Clear
1:35 PM 51.8 °F - 23.0 °F 33% 30.21 in 10.0 mi South 16.1 mph 21.9 mph N/A   Clear
1:55 PM 50.0 °F - 24.8 °F 37% 30.21 in 10.0 mi SSE 13.8 mph 19.6 mph N/A   Clear
2:15 PM 50.0 °F - 26.6 °F 40% 30.19 in 10.0 mi SSE 16.1 mph - N/A   Clear
2:35 PM 50.0 °F - 26.6 °F 40% 30.18 in 10.0 mi SSE 15.0 mph - N/A   Clear
2:55 PM 50.0 °F - 28.4 °F 43% 30.16 in 10.0 mi SSE 15.0 mph 18.4 mph N/A   Clear
3:15 PM 48.2 °F - 28.4 °F 46% 30.16 in 10.0 mi SSE 16.1 mph 20.7 mph N/A   Clear
3:35 PM 50.0 °F - 24.8 °F 37% 30.16 in 10.0 mi SSE 16.1 mph - N/A   Clear
3:55 PM 48.2 °F - 26.6 °F 43% 30.15 in 10.0 mi SSE 16.1 mph 21.9 mph N/A   Clear
4:15 PM 46.4 °F 40.4 °F 26.6 °F 46% 30.15 in 10.0 mi SSE 13.8 mph 19.6 mph N/A   Clear
4:35 PM 44.6 °F 37.8 °F 26.6 °F 49% 30.14 in 10.0 mi SSE 15.0 mph - N/A   Clear
4:55 PM 44.6 °F 37.4 °F 26.6 °F 49% 30.13 in 10.0 mi SSE 16.1 mph - N/A   Clear
5:15 PM 44.6 °F 37.2 °F 24.8 °F 46% 30.14 in 10.0 mi SSE 17.3 mph - N/A   Clear
5:35 PM 44.6 °F 37.8 °F 24.8 °F 46% 30.13 in 10.0 mi SSE 15.0 mph - N/A   Clear
5:55 PM 42.8 °F 37.0 °F 26.6 °F 53% 30.12 in 10.0 mi SSE 10.4 mph - N/A   Clear
6:15 PM 41.0 °F 33.9 °F 26.6 °F 57% 30.10 in 10.0 mi SE 12.7 mph - N/A   Clear
6:35 PM 41.0 °F 33.5 °F 28.4 °F 61% 30.09 in 10.0 mi SE 13.8 mph 18.4 mph N/A   Clear
6:55 PM 37.4 °F 29.8 °F 30.2 °F 75% 30.10 in 10.0 mi SE 11.5 mph - N/A   Clear
7:15 PM 37.4 °F 30.3 °F 30.2 °F 75% 30.10 in 10.0 mi SE 10.4 mph - N/A   Clear
7:35 PM 35.6 °F 27.1 °F 30.2 °F 81% 30.10 in 10.0 mi SE 12.7 mph - N/A   Clear
7:55 PM 35.6 °F 28.6 °F 30.2 °F 81% 30.10 in 10.0 mi SE 9.2 mph - N/A   Clear
8:15 PM 35.6 °F 28.6 °F 30.2 °F 81% 30.10 in 10.0 mi SE 9.2 mph - N/A   Clear
8:35 PM 35.6 °F 27.1 °F 30.2 °F 81% 30.09 in 10.0 mi SSE 12.7 mph - N/A   Clear
8:55 PM 35.6 °F 27.5 °F 30.2 °F 81% 30.11 in 10.0 mi SSE 11.5 mph - N/A   Clear
9:15 PM 35.6 °F 27.5 °F 30.2 °F 81% 30.10 in 10.0 mi SSE 11.5 mph - N/A   Clear
9:35 PM 35.6 °F 28.0 °F 30.2 °F 81% 30.09 in 7.0 mi SSE 10.4 mph - N/A   Clear
9:55 PM 35.6 °F 26.6 °F 30.2 °F 81% 30.09 in 7.0 mi SSE 13.8 mph - N/A   Clear
10:15 PM 35.6 °F 26.2 °F 30.2 °F 81% 30.09 in 7.0 mi SSE 15.0 mph 19.6 mph N/A   Clear
10:35 PM 35.6 °F 26.2 °F 30.2 °F 81% 30.09 in 7.0 mi SSE 15.0 mph - N/A   Clear
10:55 PM 35.6 °F 25.9 °F 30.2 °F 81% 30.08 in 7.0 mi SSE 16.1 mph 19.6 mph N/A   Clear
11:15 PM 35.6 °F 26.2 °F 30.2 °F 81% 30.08 in 7.0 mi SSE 15.0 mph - N/A   Clear
11:35 PM 33.8 °F 23.5 °F 30.2 °F 87% 30.06 in 7.0 mi SSE 16.1 mph 23.0 mph N/A   Clear
11:55 PM 33.8 °F 23.5 °F 30.2 °F 87% 30.07 in 7.0 mi South 16.1 mph 23.0 mph N/A   Clear